Weather Roundup
Issued by NWS Corpus Christi, TX

Home | Current Version | Previous Version | Text Only | Print | Product List | Glossary On
Versions: 1 2 3 4 5 6 7 8 9 10 11 12 13 14 15 16 17 18 19 20 21 22 23 24 25 26 27 28 29 30 31 32 33 34 35 36 37 38 39 40 41 42 43 44 45 46 47 48 49 50
000
ASUS44 KCRP 240810
HRRCRP

SOUTH TEXAS REGIONAL WEATHER ROUNDUP
NATIONAL WEATHER SERVICE CORPUS CHRISTI TX
200 AM CST TUE JAN 24 2017


TXZ229>244-240900-
...CORPUS CHRISTI AREA OBSERVATIONS...

CITY           SKY/WX    TMP DP  RH WIND       PRES   REMARKS
CORPUS CHRISTI CLEAR     58  52  80 S12       29.83F
NAS CORPUS CHR CLEAR     62  59  90 S10       29.83F
ROCKPORT         N/A     64  56  75 S8G18     29.84F
ALICE          CLEAR     54  44  69 S8        29.82F
ORANGE GROVE   CLEAR     52  45  77 S9        29.83F
FALFURRIAS     CLEAR     54  48  81 S5        29.83F
$$

...VICTORIA AREA OBSERVATIONS...

CITY           SKY/WX    TMP DP  RH WIND       PRES   REMARKS
VICTORIA       CLEAR     53  51  93 S7        29.84F
BEEVILLE       FAIR      56  50  79 S9        29.82F
PLEASANTON     CLEAR     52  40  64 E5        29.80F
SAN ANTONIO    CLEAR     53  39  59 S6        29.82S
$$

...LAREDO AREA OBSERVATIONS...

CITY           SKY/WX    TMP DP  RH WIND       PRES   REMARKS
LAREDO         CLEAR     61  38  42 SE15      29.77F
COTULLA        CLEAR     58  33  39 SE10      29.76F
DEL RIO        CLEAR     59  32  36 E12       29.72F
MCALLEN        CLEAR     62  54  74 SE8       29.84F
HEBBRONVILLE   CLEAR     50  37  59 S6        29.81F
$$

...OTHER TEXAS OBSERVATIONS...

CITY           SKY/WX    TMP DP  RH WIND       PRES   REMARKS
BROWNSVILLE    CLEAR     62  59  90 SE9       29.85F
HOUSTON        PTCLDY    57  47  69 S5        29.84F
COL. STATION   CLEAR     52  45  77 S8        29.81F
AUSTIN         PTCLDY    52  39  61 S8        29.80F
WACO           PTCLDY    55  38  52 S14       29.75F
FORT WORTH     MOCLDY    56  39  53 S13       29.70F
WICHITA FALLS  CLEAR     49  37  63 S10       29.62F
LUBBOCK        CLEAR     54  32  43 S16       29.62F
EL PASO        PTCLDY    58  26  29 SW17      29.69F
$$

...MARINE OBSERVATIONS...

STATION/POSITION TIME  SKY/WX   TEMP    WIND        PRES    VSBY  WAVE   SWELL
                                AIR SEA DIR/SP/G                  HT/PER HT/PER
                 (UTC)          (F)     (DEG/KT/KT) (MB)    (MI)  (FT/S) (FT/S)
PORT ARANSAS     0800            65 63  170/ 16/ 18 1010.2F
BUOY 90 E PORT A 0650            70 71  180/ 14/ 16 1012.0          2/ 3
BUOY 45 SE BAFFI 0650            71     180/ 19/ 21 1011.0          3/ 4
BUOY 200 E PT IS 0650            70 73  200/  4/  8 1013.9          3/ 6   3/ 6
BUOY 15 E GALVES 0650            65 65  210/ 12/ 14 1011.7          1/ 4
$$




USA.gov is the U.S. government's official web portal to all federal, state and local government web resources and services.